SCP
0 0 0 0 0 0 0 0 0 0 0 1 1 1 1 1 0 1 1 0 0 0 0 0 0 0 0 1 1 1 0 0 1 1 1 1 1 1
0 0 0 0 0 0 0 0 0 0 0 1 1 1 1 1 0 1 1 1 0 0 0 0 0 0 0 1 1 0 0 0 0 1 1 1 1 1
0 0 0 0 0 0 0 0 0 0 0 0 0 0 1 1 1 1 1 1 0 0 0 0 0 0 0 0 0 0 0 0 0 0 1 1 1 1
0 0 0 0 0 0 0 0 0 0 0 0 0 0 0 1 1 1 1 1 0 0 0 0 0 0 0 0 0 0 0 0 0 0 1 1 1 1
0 0 0 0 0 0 0 0 0 0 0 0 0 0 0 1 1 1 1 1 0 0 0 0 0 0 0 0 0 0 0 0 0 0 0 0 1 1
0 0 0 0 0 0 0 0 0 0 0 0 0 0 0 1 1 1 1 1 1 0 0 0 0 0 0 0 0 0 0 0 0 0 0 0 0 0
0 0 0 0 0 0 0 0 0 0 0 0 0 0 0 1 1 1 1 1 1 1 1 1 1 0 0 0 0 0 0 0 0 0 0 0 0 0
0 0 0 0 0 0 0 0 0 0 0 0 0 0 0 0 0 0 1 1 1 1 1 1 1 1 0 0 0 0 0 0 0 0 0 0 0 0
0 0 0 0 0 0 0 0 0 0 0 0 0 0 0 0 0 0 0 0 0 0 0 0 0 0 0 0 0 0 0 0 0 0 0 0 0 0
0 0 0 0 0 0 0 0 0 0 0 0 0 0 0 0 0 0 0 0 0 0 0 0 0 0 0 0 0 0 0 0 0 0 0 0 0 0
0 0 0 0 0 0 0 0 0 0 0 0 0 0 0 0 0 0 0 0 0 0 0 0 0 0 0 0 0 0 0 0 0 0 0 0 0 0
0 0 0 0 0 0 0 0 0 0 0 0 0 0 0 0 0 0 0 0 0 0 0 0 0 0 0 0 0 0 0 0 0 0 0 0 0 0
0 0 0 0 0 0 0 0 0 0 0 0 0 0 0 0 0 0 0 0 0 0 0 0 0 0 0 0 0 0 0 0 0 0 0 0 0 0
0 0 0 0 0 0 0 0 0 0 0 0 0 0 0 0 0 0 0 0 0 0 0 0 0 0 0 0 0 0 0 0 0 0 0 0 0 0
0 0 0 0 0 0 0 0 0 0 0 0 0 0 0 0 0 0 0 0 0 0 0 0 0 0 0 0 0 0 0 0 0 0 0 0 0 0
0 0 0 0 0 0 1 1 1 1 1 0 0 0 0 0 0 0 0 0 0 0 0 0 0 0 0 0 0 0 0 0 0 0 0 0 0 0
0 1 1 1 1 1 2 2 2 2 1 1 0 0 0 0 0 0 0 0 0 0 0 0 0 0 0 0 0 0 0 0 0 0 0 0 0 0
0 1 1 1 1 1 2 3 3 3 2 1 1 0 0 0 0 0 0 0 0 0 0 0 0 0 0 0 0 0 0 0 0 0 0 0 0 0
0 1 1 1 1 1 2 2 3 3 2 2 1 0 0 0 0 0 0 0 0 0 0 0 0 0 0 0 0 0 0 0 0 0 0 0 0 0
0 1 1 1 1 1 1 2 2 2 2 2 1 1 0 0 0 0 0 0 0 0 0 0 0 0 0 0 0 0 0 0 0 0 0 0 0 0
0 1 1 1 1 1 1 1 2 2 2 2 1 1 0 0 0 0 0 0 0 0 0 0 0 0 0 0 0 0 0 0 0 0 0 0 0 0
1 1 1 1 1 1 1 1 1 1 1 1 1 1 0 0 0 0 0 0 1 1 0 0 0 0 0 0 0 0 0 0 0 0 0 0 0 0
1 1 1 1 1 1 1 1 1 1 1 1 1 0 0 0 0 0 1 1 1 1 0 0 0 0 0 0 0 0 0 0 0 0 0 0 0 0
Wind_Speed
2 1 1 1 1 1 1 1 1 2 2 3 2 1 1 2 1 2 2 4 3 3 3 4 4 4 5 5 5 5 5 5 5 6 7 7 8 9
2 2 2 1 1 1 1 1 2 2 1 2 1 1 0 1 1 1 1 4 4 3 3 4 4 4 5 5 5 5 4 4 5 6 6 6 7 7
2 2 1 2 1 1 1 1 1 2 1 1 1 1 2 2 1 1 1 2 4 5 4 3 4 4 4 5 5 4 4 4 4 4 5 5 6 7
2 2 2 1 2 1 1 2 1 2 2 2 2 2 2 1 1 1 1 1 2 5 4 3 3 3 3 4 4 4 4 4 3 4 4 5 5 6
3 3 2 2 2 2 2 2 2 2 2 2 2 1 1 1 1 1 1 1 1 4 5 5 4 3 3 3 3 4 4 4 3 3 3 4 4 5
4 4 4 4 3 2 2 3 2 2 2 2 2 2 2 2 2 2 1 1 1 1 2 2 4 5 4 4 3 3 3 3 3 3 3 3 4 4
5 5 4 2 2 3 2 2 3 3 3 3 2 2 3 3 2 2 2 1 2 1 1 2 3 4 5 6 4 3 3 2 2 2 3 3 3 4
7 6 5 6 6 7 5 4 4 4 3 3 3 3 3 3 2 2 2 2 2 2 2 2 2 2 1 2 4 4 3 2 1 1 1 2 2 3
8 7 5 5 6 7 8 8 7 5 5 5 4 4 3 3 4 4 3 3 1 1 2 2 2 1 2 4 5 3 3 2 2 1 0 1 2 3
9 9 8 8 8 7 7 7 7 6 6 6 5 3 2 2 4 3 2 2 2 1 2 2 2 2 2 4 6 5 4 3 2 2 1 1 2 3
11 10 10 10 7 7 8 8 7 6 4 2 2 1 2 1 1 3 4 4 3 3 2 2 1 1 2 3 6 6 5 5 4 3 3 3 3 5
10 10 10 10 9 12 11 9 9 7 7 7 6 6 6 6 6 6 4 4 3 3 3 2 2 2 2 3 3 4 5 6 5 4 3 3 5 4
10 9 9 13 12 14 13 10 7 6 7 7 6 6 6 5 6 6 4 3 3 2 3 3 2 2 2 2 2 1 1 1 2 3 4 4 4 4
10 10 8 14 16 15 13 9 7 7 7 7 7 6 6 6 5 5 5 3 2 1 2 3 3 2 3 3 2 2 1 0 1 1 0 3 3 3
11 10 8 11 14 13 14 12 11 9 8 8 8 7 6 6 5 5 5 4 3 2 1 2 2 3 3 3 2 2 2 1 1 1 1 1 1 1
12 10 10 11 10 9 10 12 11 10 9 9 8 7 6 6 6 6 6 6 5 4 3 2 1 2 3 2 2 2 2 1 1 1 2 2 2 2
10 9 10 10 11 11 11 11 10 10 10 9 8 8 8 7 7 6 6 6 6 6 5 3 3 2 0 2 3 3 2 2 1 1 2 3 3 2
10 11 11 12 12 12 12 11 11 11 11 10 10 9 9 8 8 7 7 7 6 6 5 5 5 4 4 2 2 3 3 2 2 2 3 4 4 2
12 12 12 12 12 12 12 12 12 11 10 10 10 10 9 9 8 8 8 7 7 6 5 5 5 5 6 5 5 1 3 2 2 3 3 4 5 4
12 12 12 12 12 12 12 11 11 11 11 11 11 10 10 10 9 9 9 9 8 7 6 5 5 5 5 3 2 4 3 3 3 4 4 4 5 4
11 12 12 11 11 11 11 11 11 11 12 11 11 11 10 10 10 10 9 9 8 8 8 6 4 2 2 2 3 4 4 4 2 4 5 5 5 5
10 11 11 11 10 10 10 10 11 11 12 12 11 11 11 10 11 11 10 10 9 8 7 6 7 5 5 5 4 3 3 4 6 8 7 6 5 5
10 10 10 10 10 9 9 11 13 11 11 11 11 11 11 11 10 10 10 10 9 9 8 7 7 6 5 5 4 4 4 4 3 4 5 9 12 12
Wind_Direction
335 327 309 335 300 310 283 276 257 196 172 151 147 130 139 105 177 190 155 119 140 153 165 170 168 174 183 189 190 189 192 195 205 213 216 222 230 232
306 310 318 298 318 277 266 270 285 273 180 140 143 147 150 170 180 198 124 149 156 160 158 161 166 171 174 178 181 185 192 201 209 212 215 221 229 237
252 273 285 305 275 236 230 234 243 250 203 142 147 163 187 185 161 175 186 195 144 143 150 158 162 170 180 183 181 180 187 200 217 222 220 223 232 238
264 258 254 237 253 251 240 227 216 243 227 186 177 179 195 180 178 201 208 183 156 131 144 154 158 167 175 181 185 186 194 204 215 225 233 233 237 243
249 253 257 248 237 213 229 226 212 218 232 216 189 170 205 180 180 201 203 194 187 148 165 170 159 159 157 167 183 193 200 206 216 227 242 253 252 254
240 241 245 242 243 230 221 218 217 218 217 218 201 191 193 186 214 202 189 177 198 167 160 167 160 171 168 163 173 188 199 210 219 229 236 247 255 259
236 234 232 247 315 281 269 235 217 224 216 217 212 208 202 197 206 203 207 197 176 184 200 184 182 187 174 169 166 162 172 181 203 226 237 244 252 259
237 233 217 208 215 222 246 274 285 255 235 222 222 221 221 209 200 221 210 210 188 163 225 184 201 190 182 129 108 129 143 141 144 195 230 246 259 265
245 234 224 215 212 214 203 212 229 251 269 267 244 231 226 207 207 213 216 230 219 138 234 194 175 167 131 95 109 118 122 117 99 79 332 303 291 282
240 239 231 222 212 222 216 212 216 210 218 233 245 241 232 209 221 233 219 215 201 179 234 232 179 169 144 122 111 105 104 100 88 66 36 350 312 288
236 234 234 231 191 201 227 222 218 211 190 231 331 19 64 64 254 213 201 208 207 177 182 234 203 189 171 146 127 128 118 105 88 69 48 13 325 279
232 230 224 236 194 190 221 224 223 216 202 188 197 199 200 187 209 227 219 224 221 192 162 212 204 205 187 160 158 162 149 133 126 107 73 36 352 296
231 228 219 199 205 201 222 232 225 226 214 210 206 199 198 195 193 206 217 236 238 208 153 197 215 216 222 182 184 188 192 161 174 149 127 88 35 342
238 234 222 187 198 203 212 219 198 208 224 214 211 205 199 195 192 189 187 194 233 233 176 209 224 225 230 220 203 188 196 244 301 302 341 143 144 130
242 240 225 189 194 204 212 202 195 210 217 216 214 208 202 192 180 174 175 171 164 156 190 216 228 230 246 246 228 219 227 218 294 300 303 302 300 284
239 230 209 198 209 222 198 198 210 214 214 216 213 204 193 185 185 181 181 180 179 168 162 176 212 232 233 236 242 242 238 230 241 289 302 301 303 303
235 227 218 210 209 212 212 206 205 206 210 214 209 201 194 192 190 187 189 192 198 187 171 170 160 149 180 264 234 236 236 234 244 282 285 279 276 286
234 228 221 218 216 213 210 207 206 207 206 205 205 202 198 196 190 187 190 197 199 193 181 172 177 182 189 171 326 254 234 239 258 271 274 274 275 278
226 230 226 221 219 216 213 210 208 205 203 202 202 201 199 197 193 189 191 195 196 190 180 179 194 210 221 211 159 259 266 251 260 259 265 276 283 292
229 230 229 225 221 217 213 210 207 202 200 201 201 199 197 196 194 193 192 192 187 180 178 183 197 213 235 252 189 161 207 258 262 271 279 283 280 269
235 234 231 228 224 219 213 208 204 201 198 198 199 196 195 194 195 194 189 181 185 184 188 186 165 185 208 204 211 199 171 172 262 287 297 289 285 276
242 239 234 229 224 219 211 205 204 202 198 198 197 194 194 194 193 190 186 182 188 189 186 163 154 178 199 215 228 224 209 188 187 202 233 265 290 300
248 244 238 229 221 216 210 206 205 202 199 196 194 192 190 190 189 186 185 185 183 181 175 168 171 185 199 212 225 232 236 244 254 248 233 206 220 248